Location: Newark
(48.5156°N, 1.8989°W)
Time: 08:16:18
(UTC+00:00)

Transit 2A Rocket - All Passes

Search period start: 15 November 2019 00:00
Search period end: 25 November 2019 00:00
Orbit: 594 x 909 km, 66.7° (Epoch: 14 November)

Date Brightness Start Highest point End Pass type
(mag) Time Alt. Az. Time Alt. Az. Time Alt. Az.
15 Nov - 00:26:55 10° W 00:30:47 26° NW 00:34:30 10° NNE night (unlit)
15 Nov - 05:40:51 10° NNW 05:44:08 20° NE 05:47:27 10° E visible
15 Nov - 07:22:47 10° NW 07:27:07 74° WSW 07:31:36 10° SSE daylight
15 Nov - 22:01:19 10° S 22:05:35 33° ESE 22:09:36 10° NE night (unlit)
15 Nov - 23:43:40 10° WSW 23:48:03 38° NW 23:52:12 10° NNE night (unlit)
16 Nov - 01:30:34 10° NW 01:31:49 11° NNW 01:33:04 10° N night (unlit)
16 Nov - 04:58:45 10° N 05:01:14 15° NNE 05:03:43 10° ENE visible
16 Nov - 06:40:17 10° NNW 06:44:35 66° NE 06:49:03 10° SE visible
16 Nov - 08:23:50 10° WNW 08:26:40 17° WSW 08:29:34 10° SSW daylight
16 Nov - 21:19:53 10° SSE 21:23:15 19° ESE 21:26:29 10° ENE night (unlit)
16 Nov - 23:00:45 10° SW 23:05:25 62° NW 23:09:49 10° NNE night (unlit)
17 Nov - 00:46:16 10° WNW 00:48:48 15° NNW 00:51:18 10° N night (unlit)
17 Nov - 04:16:59 10° N 04:18:13 11° NNE 04:19:28 10° NE visible
17 Nov - 05:57:52 10° NNW 06:01:58 40° NE 06:06:10 10° ESE visible
17 Nov - 07:40:36 10° NW 07:44:23 29° WSW 07:48:17 10° S daylight
17 Nov - 20:39:46 10° ESE 20:41:01 11° ESE 20:42:15 10° E night (unlit)
17 Nov - 22:18:08 10° SSW 22:22:52 80° ESE 22:27:19 10° NE night (unlit)
18 Nov - 00:02:30 10° W 00:05:54 20° NW 00:09:12 10° NNE night (unlit)
18 Nov - 05:15:34 10° NNW 05:19:14 26° NE 05:22:59 10° E visible
18 Nov - 06:57:46 10° NW 07:01:59 50° WSW 07:06:22 10° SSE daylight
18 Nov - 21:35:52 10° S 21:40:25 46° ESE 21:44:41 10° NE night (unlit)
18 Nov - 23:19:04 10° WSW 23:23:06 29° NW 23:26:58 10° NNE night (unlit)
19 Nov - 04:33:21 10° N 04:36:24 18° NE 04:39:29 10° E visible
19 Nov - 06:15:10 10° NW 06:19:31 88° SW 06:24:03 10° SSE visible
19 Nov - 07:59:52 10° W 08:01:23 12° WSW 08:02:56 10° SW daylight
19 Nov - 20:54:03 10° S 20:58:02 27° ESE 21:01:49 10° ENE night (unlit)
19 Nov - 22:35:56 10° WSW 22:40:24 45° NW 22:44:38 10° NNE night (unlit)
20 Nov - 00:22:17 10° NW 00:24:02 12° NNW 00:25:46 10° N night (unlit)
20 Nov - 03:51:20 10° N 03:53:28 13° NNE 03:55:37 10° ENE visible
20 Nov - 05:32:41 10° NNW 05:36:57 55° NE 05:41:23 10° SE visible
20 Nov - 07:15:53 10° WNW 07:19:09 21° WSW 07:22:31 10° SSW daylight
20 Nov - 20:12:54 10° SSE 20:15:44 16° ESE 20:18:30 10° ENE night (unlit)
20 Nov - 21:53:06 10° SW 21:57:48 74° NW 22:02:13 10° NNE night (unlit)
20 Nov - 23:38:13 10° WNW 23:41:04 16° NNW 23:43:50 10° N night (unlit)
21 Nov - 03:10:07 10° NNE 03:10:26 10° NNE 03:10:44 10° NNE visible
21 Nov - 04:50:19 10° NNW 04:54:18 34° NE 04:58:23 10° ESE visible
21 Nov - 06:32:50 10° NW 06:36:49 35° WSW 06:40:58 10° S visible
21 Nov - 21:10:37 10° SSW 21:15:17 66° ESE 21:19:41 10° NE night (unlit)
21 Nov - 22:54:34 10° W 22:58:11 23° NW 23:01:41 10° NNE night (unlit)
22 Nov - 04:08:02 10° NNW 04:11:32 23° NE 04:15:06 10° E visible
22 Nov - 05:50:06 10° NW 05:54:24 62° WSW 05:58:54 10° SSE visible
22 Nov - 20:28:29 10° S 20:32:51 38° ESE 20:36:58 10° NE night (unlit)
22 Nov - 22:11:14 10° WSW 22:15:25 33° NW 22:19:25 10° NNE night (unlit)
23 Nov - 03:25:53 10° N 03:28:40 16° NNE 03:31:29 10° ENE visible
23 Nov - 05:07:32 10° NNW 05:11:54 78° NE 05:16:27 10° SE visible
23 Nov - 06:51:30 10° WNW 06:53:53 14° WSW 06:56:20 10° SW visible
23 Nov - 19:46:51 10° SSE 19:50:30 22° ESE 19:53:58 10° ENE night (unlit)
23 Nov - 21:28:13 10° SW 21:32:45 53° NW 21:37:03 10° NNE night (unlit)
23 Nov - 23:14:07 10° WNW 23:16:16 13° NNW 23:18:23 10° N night (unlit)
24 Nov - 02:43:56 10° N 02:45:41 12° NNE 02:47:27 10° NE visible
24 Nov - 04:25:06 10° NNW 04:29:18 46° NE 04:33:40 10° ESE visible
24 Nov - 06:08:02 10° WNW 06:11:37 25° WSW 06:15:20 10° SSW visible
24 Nov - 19:06:09 10° SE 19:08:14 13° ESE 19:10:18 10° E night (unlit)
24 Nov - 20:45:30 10° SW 20:50:11 87° NW 20:54:36 10° NE night (unlit)
24 Nov - 22:30:13 10° WNW 22:33:19 18° NW 22:36:21 10° N night (unlit)
